User: anonymous   Login
Location: Unspecified
(0.0000°N, 0.0000°E)
Time: 20:07:04
(UTC+00:00)
Language:

CHINASAT 1E - Orbit

View from above orbital plane
View from above orbital plane
View from above satellite
View from above satellite

Ground track
Ground track

The orbit is defined by the following mean orbital elements,

1 53813U          26145.52857178 +.00000000 +00000-0 +00000-0 0 00004
2 53813   0.0116 297.6234 0000843  55.1726 162.0094  1.00270415    06
Epoch (UTC): 25 May 2026 12:41:08
Eccentricity: 0.0000843
inclination: 0.0116°
perigee height: 35783 km
apogee height: 35791 km
right ascension of ascending node: 297.6234°
argument of perigee: 55.1726°
revolutions per day: 1.00270415
mean anomaly at epoch: 162.0094°

The dashed part of the orbit path shows where the satellite is in the earth's shadow,  

DLR